Wind_Speed
8 6 5 5 5 5 7 9 7 7 7 8 8 9 10 10 9 8 8 8 9 10 10 9 9 10 9 7 7 7 8 10 14 15 17 17 17 17 16 16 16 16 16
4 5 5 5 4 4 6 8 10 11 11 12 11 10 10 10 12 12 12 12 11 12 14 11 10 8 13 12 10 10 9 9 12 14 16 17 18 19 18 19 18 18 17
5 4 5 5 5 6 6 9 11 12 15 15 15 14 15 13 14 15 16 16 15 14 15 16 13 17 12 13 14 12 11 11 10 13 14 16 17 17 18 20 21 20 18
9 8 7 6 7 9 11 12 13 14 16 17 18 18 17 16 16 18 18 17 17 17 18 18 17 18 15 13 15 17 14 12 12 11 14 14 17 18 17 19 21 20 19
11 9 8 8 12 13 14 14 15 17 19 19 19 18 16 19 17 18 18 17 18 18 16 17 15 14 13 17 16 18 18 14 13 13 13 15 16 19 20 19 21 20 20
12 14 13 14 14 14 14 16 18 19 20 16 15 18 18 18 20 21 20 21 22 21 19 18 18 15 14 15 17 17 23 16 14 14 14 15 14 17 22 21 22 21 20
11 12 12 14 15 15 14 14 17 15 16 15 16 19 18 18 18 19 20 19 20 19 20 19 16 17 17 13 16 16 13 19 16 15 17 16 16 15 21 23 25 23 22
13 15 13 15 14 12 11 12 14 16 14 13 13 14 11 12 12 14 14 16 17 19 20 17 12 13 13 14 14 15 15 16 20 17 18 19 18 18 19 22 24 23 23
12 12 13 14 13 13 11 13 13 16 15 12 13 11 7 5 14 11 13 12 14 14 16 15 11 10 9 10 12 11 12 13 17 20 18 19 21 22 23 24 25 26 25
10 10 12 12 13 14 14 15 16 18 17 16 15 15 15 17 13 12 14 15 14 12 14 15 16 13 10 6 6 8 9 10 13 16 18 19 19 21 20 25 28 30 29
11 10 10 10 11 12 13 15 16 18 18 19 18 17 16 16 17 18 23 18 13 12 11 14 14 15 11 8 7 8 8 9 10 12 13 15 19 20 21 23 26 29 33
10 11 9 11 13 14 15 16 15 16 17 17 18 19 18 17 15 14 15 15 14 10 11 12 13 14 12 8 6 5 8 9 9 10 11 13 15 18 22 21 24 24 32
10 9 11 12 14 15 16 17 16 16 16 17 19 18 18 15 16 16 16 17 17 13 9 8 13 17 13 11 10 8 8 10 10 10 10 12 14 16 19 23 22 20 27
13 13 15 16 16 13 14 14 15 17 19 18 17 13 13 14 16 17 17 16 16 17 17 17 15 13 14 13 12 12 9 12 10 9 10 10 14 16 16 19 22 23 23
16 16 18 19 18 20 19 17 17 17 16 16 15 15 16 15 15 16 17 16 16 17 20 20 16 16 18 17 14 14 13 11 10 7 6 6 8 12 14 14 16 18 25
23 22 21 20 21 19 18 17 18 19 20 16 12 14 18 18 19 19 18 18 18 18 20 20 16 15 15 19 15 15 16 13 12 10 9 9 11 11 10 8 8 12 17
22 23 24 21 23 24 21 22 27 21 22 18 12 12 16 21 21 21 20 19 19 20 21 18 16 15 15 16 19 19 18 15 14 14 14 14 14 14 11 9 10 9 10
19 24 27 25 23 26 20 20 20 17 18 18 14 13 16 18 21 20 20 21 22 21 21 20 17 15 14 16 17 18 18 17 17 17 16 16 18 18 16 19 15 13 12
18 15 15 18 22 23 21 17 16 13 14 13 13 16 19 20 22 21 22 21 20 20 21 21 18 17 18 18 18 19 19 19 19 19 18 17 17 21 20 22 20 17 17
13 13 13 15 14 13 10 10 13 11 12 17 16 18 18 19 21 18 19 19 21 21 23 23 23 20 20 22 23 23 23 22 20 19 17 15 17 19 20 26 24 21 23
10 10 10 9 7 11 16 16 13 10 15 20 21 22 22 22 22 19 21 21 22 22 23 22 21 19 19 17 17 16 15 16 18 18 17 14 13 15 16 19 24 24 25
8 9 9 8 7 9 11 12 12 13 15 15 16 16 17 18 19 21 22 23 24 25 22 21 18 11 10 10 10 10 10 11 13 14 17 17 15 15 15 13 15 18 20
10 9 9 10 10 10 10 10 11 14 16 17 18 19 20 21 21 22 21 24 27 25 19 18 15 10 8 4 4 6 8 9 11 12 17 21 19 21 21 20 18 17 19
14 16 17 16 14 14 13 13 13 11 10 10 11 11 11 13 16 14 14 17 18 15 5 10 2 9 18 21 17 10 5 4 2 10 10 9 9 10 12 17 25 24 21
18 18 17 15 16 17 16 15 13 12 12 13 14 16 19 25 26 20 10 6 2 7 7 1 10 20 17 18 22 20 15 13 12 15 13 10 10 10 10 10 11 17 20
20 18 19 20 20 20 19 19 18 17 18 17 15 14 16 17 11 12 9 6 7 4 4 8 11 11 6 7 7 7 9 7 7 14 17 13 10 9 9 7 4 2 4
Wind_Direction
130 126 147 159 161 179 193 203 222 243 258 261 273 275 256 269 286 279 297 284 289 285 315 268 268 261 248 235 232 236 233 225 216 216 216 215 207 213 214 206 203 201 196
141 155 175 187 208 210 217 229 253 261 265 269 275 277 273 275 272 279 279 284 278 278 283 288 265 273 268 251 232 228 233 231 223 218 221 221 217 217 214 214 207 205 200
234 236 231 237 232 238 236 251 264 272 271 269 274 275 274 276 272 274 268 270 274 269 275 276 270 258 272 259 249 234 231 233 227 222 221 220 221 215 214 212 207 205 203
245 250 258 252 258 274 266 271 276 281 278 280 279 279 277 272 273 275 275 269 271 272 270 266 270 262 262 257 255 244 232 226 227 222 222 222 222 218 217 209 202 202 203
245 255 269 275 281 283 276 278 287 289 291 282 280 279 281 279 276 273 274 271 278 274 272 270 263 266 255 255 254 246 236 225 222 225 223 224 222 219 216 209 204 201 198
249 259 271 280 281 282 289 289 288 291 287 288 280 280 281 275 275 276 275 275 276 271 268 273 262 269 264 257 261 263 235 229 230 225 229 227 225 219 213 210 206 206 204
256 261 269 263 271 279 293 298 295 299 312 298 292 296 290 282 275 274 280 278 272 264 261 267 267 273 255 263 262 269 271 234 236 232 229 232 225 219 213 213 210 210 211
254 267 272 277 282 288 307 304 303 306 309 307 302 309 313 303 282 273 279 286 282 264 257 253 273 279 257 265 273 263 253 242 232 235 234 235 229 225 220 218 219 218 219
261 264 270 279 292 294 312 311 309 312 306 297 301 298 308 297 312 294 294 290 302 286 245 239 238 261 268 268 258 249 244 240 232 236 241 238 236 232 229 219 222 221 220
269 275 277 285 298 306 314 314 315 319 310 304 296 290 285 278 291 298 292 301 300 299 263 237 237 244 249 263 264 253 246 237 233 237 242 245 246 244 237 226 225 224 218
269 273 267 270 281 293 304 309 313 318 310 302 298 296 288 282 280 284 298 305 293 296 282 242 229 229 238 238 252 259 243 235 230 237 244 247 246 246 244 240 238 233 223
282 292 285 291 287 296 298 299 307 313 306 296 296 287 283 279 275 289 291 304 309 314 316 239 225 233 229 229 228 254 246 232 238 240 248 252 248 245 244 244 242 232 224
279 284 282 285 300 298 295 297 298 304 309 303 302 291 281 273 266 274 280 291 297 302 310 299 273 234 226 227 229 244 264 237 242 246 255 252 254 253 247 242 238 241 228
283 278 283 280 281 271 270 270 272 289 301 308 307 292 283 273 272 269 275 286 284 289 295 298 290 240 235 236 240 235 249 234 235 259 265 269 260 254 251 243 244 233 237
286 285 287 281 279 282 289 288 280 272 272 290 301 282 286 273 268 269 271 278 276 283 299 306 288 262 248 245 240 239 237 236 239 252 253 265 271 250 245 249 245 244 237
282 284 284 283 284 292 291 297 288 271 264 271 282 278 281 276 270 268 268 266 268 275 284 294 286 277 256 235 233 241 242 243 246 252 252 275 274 250 240 235 232 242 240
284 285 283 283 284 283 297 288 303 283 265 258 270 281 273 277 277 269 267 265 265 269 278 281 275 273 257 238 231 239 246 247 245 242 260 268 270 251 237 243 239 239 236
279 285 288 288 286 284 291 286 294 289 269 257 259 276 278 274 273 268 263 267 268 267 271 278 278 267 252 241 238 237 235 237 246 253 259 262 257 250 243 252 247 241 238
291 286 284 280 278 274 280 278 289 283 253 252 269 281 283 275 267 271 270 267 273 266 264 270 270 265 256 248 242 242 246 252 251 253 261 263 260 255 249 243 244 243 242
311 301 288 288 291 292 277 282 297 300 261 273 282 299 284 273 271 267 267 271 267 263 257 261 267 263 254 253 255 258 257 256 253 254 262 270 265 260 258 251 248 248 248
323 321 315 315 314 297 296 301 284 299 293 283 278 285 284 276 274 264 270 267 261 257 258 259 258 260 261 261 264 263 260 256 255 260 261 264 266 265 265 264 251 251 253
328 329 328 323 306 311 316 324 326 314 308 303 303 302 296 287 280 270 265 266 266 258 256 258 252 256 267 264 265 266 270 272 272 271 268 265 268 264 267 273 256 248 240
26 19 15 9 4 358 351 336 319 307 302 297 300 306 298 295 289 281 279 265 261 244 229 214 221 215 200 232 268 298 293 296 297 294 284 279 274 272 265 264 258 251 248
59 57 53 47 41 40 34 31 27 18 11 15 16 13 355 328 304 294 291 271 254 240 179 88 102 255 250 235 233 231 258 279 317 353 331 324 328 309 298 273 256 253 253
73 67 61 59 56 58 53 50 42 43 53 53 50 55 40 40 52 45 41 52 333 91 101 69 280 276 244 245 257 256 245 264 275 287 306 324 331 313 329 324 278 250 246
68 65 62 60 59 56 57 55 52 53 52 50 55 48 46 63 66 25 35 18 48 101 303 299 257 215 208 264 263 259 248 254 290 287 288 285 269 287 286 264 305 337 253
Height
1573 1574 1575 1576 1577 1578 1579 1579 1579 1579 1579 1579 1579 1578 1578 1578 1577 1576 1575 1575 1575 1575 1575 1575 1575 1576 1576 1576 1577 1578 1579 1580 1582 1584 1587 1590 1593 1595 1598 1600 1603 1605 1606
1574 1575 1576 1577 1578 1578 1579 1579 1578 1578 1578 1577 1577 1577 1576 1576 1575 1574 1573 1573 1573 1573 1573 1573 1574 1574 1575 1575 1575 1575 1577 1578 1580 1582 1585 1588 1590 1592 1595 1598 1601 1603 1605
1574 1576 1577 1577 1578 1578 1578 1578 1578 1577 1576 1575 1574 1574 1574 1573 1573 1572 1571 1570 1569 1569 1570 1570 1571 1569 1572 1575 1574 1574 1575 1576 1578 1580 1583 1585 1588 1590 1593 1595 1598 1601 1603
1575 1576 1577 1577 1577 1578 1578 1577 1576 1575 1575 1573 1572 1572 1571 1570 1570 1569 1568 1567 1567 1567 1567 1567 1568 1569 1572 1572 1572 1572 1572 1574 1576 1578 1581 1583 1585 1588 1591 1593 1596 1599 1601
1574 1575 1576 1576 1577 1576 1576 1575 1574 1573 1572 1571 1570 1570 1569 1568 1567 1566 1565 1564 1564 1563 1563 1564 1564 1564 1567 1567 1568 1567 1567 1570 1573 1576 1578 1580 1582 1585 1588 1591 1595 1597 1599
1573 1574 1575 1575 1575 1575 1575 1574 1572 1571 1569 1569 1567 1567 1566 1566 1564 1563 1562 1561 1560 1560 1560 1560 1561 1561 1562 1563 1563 1563 1540 1566 1570 1573 1576 1578 1580 1582 1585 1588 1593 1596 1597
1573 1573 1574 1574 1576 1575 1573 1572 1569 1569 1569 1568 1565 1564 1563 1561 1560 1559 1559 1557 1557 1557 1557 1558 1558 1558 1559 1559 1560 1560 1561 1561 1567 1570 1573 1575 1578 1580 1581 1585 1589 1592 1595
1572 1571 1572 1572 1571 1571 1570 1570 1568 1567 1565 1562 1564 1561 1559 1558 1556 1556 1555 1554 1553 1552 1554 1556 1556 1556 1557 1557 1557 1558 1559 1561 1564 1566 1569 1571 1574 1577 1579 1582 1586 1589 1593
1570 1570 1570 1571 1571 1570 1568 1567 1566 1565 1564 1564 1563 1563 1560 1557 1555 1554 1553 1552 1550 1549 1549 1552 1553 1555 1555 1555 1555 1556 1557 1559 1561 1564 1566 1568 1570 1573 1575 1577 1581 1584 1587
1568 1569 1569 1570 1569 1569 1568 1568 1566 1565 1564 1563 1562 1561 1560 1558 1556 1552 1551 1550 1548 1548 1547 1548 1550 1553 1554 1554 1554 1555 1556 1557 1558 1561 1563 1565 1566 1569 1571 1574 1576 1578 1582
1566 1566 1566 1566 1565 1565 1565 1565 1564 1563 1562 1562 1561 1560 1559 1557 1555 1553 1548 1547 1547 1547 1546 1547 1548 1550 1552 1552 1553 1554 1555 1555 1557 1558 1560 1561 1563 1564 1566 1569 1571 1573 1577
1564 1564 1564 1563 1563 1562 1561 1560 1560 1559 1559 1558 1557 1556 1555 1555 1553 1552 1549 1546 1545 1545 1545 1545 1546 1548 1549 1550 1551 1552 1553 1554 1555 1557 1558 1559 1560 1561 1562 1564 1566 1567 1572
1562 1561 1561 1560 1559 1558 1558 1557 1557 1556 1555 1554 1553 1552 1551 1551 1551 1550 1549 1547 1545 1544 1544 1544 1545 1545 1546 1547 1548 1550 1551 1552 1554 1555 1556 1556 1557 1557 1558 1559 1561 1564 1566
1559 1559 1558 1556 1555 1553 1552 1550 1550 1551 1552 1550 1549 1549 1549 1549 1548 1548 1547 1546 1544 1543 1542 1541 1542 1542 1544 1545 1546 1547 1548 1550 1551 1552 1553 1552 1553 1554 1555 1556 1556 1558 1562
1556 1555 1554 1553 1551 1550 1548 1545 1543 1543 1544 1545 1544 1545 1546 1546 1546 1546 1545 1544 1544 1543 1540 1539 1539 1540 1541 1542 1543 1545 1546 1547 1548 1549 1550 1550 1551 1552 1552 1553 1553 1555 1557
1552 1551 1549 1548 1548 1547 1545 1543 1540 1537 1537 1540 1538 1539 1542 1543 1543 1543 1542 1542 1542 1542 1540 1539 1537 1537 1537 1538 1540 1542 1543 1544 1545 1546 1548 1548 1548 1549 1549 1550 1550 1552 1553
1546 1545 1543 1544 1543 1542 1540 1537 1534 1532 1533 1533 1534 1533 1536 1539 1539 1539 1539 1538 1537 1538 1537 1536 1534 1534 1534 1535 1536 1536 1538 1540 1541 1542 1544 1545 1546 1547 1547 1548 1548 1549 1550
1542 1541 1539 1538 1538 1536 1534 1533 1529 1526 1527 1530 1531 1530 1531 1534 1535 1535 1534 1534 1533 1533 1533 1534 1532 1531 1531 1531 1532 1534 1534 1535 1538 1538 1539 1540 1541 1542 1543 1544 1545 1546 1547
1536 1535 1532 1531 1530 1529 1529 1528 1527 1525 1525 1527 1529 1529 1529 1529 1529 1530 1529 1529 1529 1528 1529 1529 1529 1529 1529 1529 1529 1530 1531 1532 1532 1533 1535 1535 1535 1537 1538 1539 1540 1541 1543
1532 1531 1530 1527 1525 1524 1525 1525 1525 1524 1525 1525 1526 1526 1525 1526 1525 1525 1524 1523 1523 1523 1524 1523 1524 1524 1525 1526 1526 1526 1526 1526 1527 1528 1528 1529 1530 1530 1532 1534 1535 1536 1538
1529 1528 1526 1525 1524 1524 1523 1523 1523 1523 1522 1522 1522 1521 1521 1520 1519 1519 1519 1519 1520 1519 1519 1519 1519 1520 1521 1521 1522 1522 1522 1522 1522 1524 1524 1523 1524 1525 1526 1526 1528 1529 1530
1530 1528 1526 1524 1523 1523 1522 1521 1521 1520 1518 1518 1517 1516 1515 1515 1514 1513 1513 1513 1515 1513 1512 1513 1515 1515 1519 1520 1521 1521 1520 1520 1520 1520 1520 1520 1519 1520 1522 1522 1522 1523 1526
1530 1528 1526 1525 1524 1522 1521 1520 1518 1517 1516 1514 1513 1511 1511 1509 1508 1507 1507 1507 1506 1500 1501 1505 1507 1511 1511 1517 1518 1521 1519 1517 1517 1516 1516 1515 1514 1515 1517 1518 1519 1519 1520
1532 1530 1529 1528 1527 1525 1523 1521 1518 1516 1514 1513 1511 1510 1507 1504 1501 1501 1501 1501 1500 1501 1503 1507 1512 1510 1510 1511 1516 1516 1516 1516 1514 1514 1514 1510 1508 1510 1511 1511 1512 1514 1515
1537 1535 1533 1532 1531 1529 1527 1524 1522 1520 1517 1514 1512 1509 1506 1504 1503 1502 1502 1501 1502 1503 1505 1504 1502 1503 1507 1509 1512 1512 1510 1513 1510 1511 1511 1509 1507 1507 1508 1507 1507 1508 1509
1540 1538 1536 1534 1533 1531 1529 1527 1525 1522 1519 1517 1515 1513 1512 1511 1509 1507 1507 1506 1507 1508 1507 1507 1506 1507 1507 1508 1510 1510 1509 1509 1506 1507 1506 1504 1505 1506 1505 1505 1506 1507 1506